When you browse on this site, cookies collect data to enhance your experience and personalize the content and advertising you see.
Visit our Privacy Policy to learn more. By continuing to use the site, you agree to this use of cookies and data.
EN

Hourly Weather Papendrecht

Today, 10 August, Monday

Time Temperature Precipitation Wind Pressure Humidity
00:00 +22°C° 0 mm 3 mps 761 mmHg 86%
01:00 +22°C° 0 mm 3 mps 761 mmHg 87%
02:00 +21°C° 0 mm 3 mps 761 mmHg 88%
03:00 +21°C° 0 mm 2 mps 761 mmHg 88%
04:00 +21°C° 0 mm 2 mps 761 mmHg 86%
05:00 +23°C° 0 mm 2 mps 760 mmHg 84%
06:00 +23°C° 0 mm 2 mps 760 mmHg 81%
07:00 +25°C° 0 mm 2 mps 760 mmHg 75%
08:00 +27°C° 0 mm 3 mps 761 mmHg 68%
09:00 +28°C° 0 mm 3 mps 761 mmHg 61%
10:00 +30°C° 0 mm 3 mps 761 mmHg 57%
11:00 +31°C° 0 mm 3 mps 760 mmHg 53%
12:00 +33°C° 0 mm 3 mps 760 mmHg 49%
13:00 +34°C° 0 mm 3 mps 760 mmHg 48%
14:00 +34°C° 0 mm 3 mps 760 mmHg 47%
15:00 +34°C° 0 mm 3 mps 760 mmHg 46%
16:00 +33°C° 0 mm 3 mps 760 mmHg 50%
17:00 +32°C° 0 mm 2 mps 760 mmHg 54%
18:00 +31°C° 0 mm 2 mps 760 mmHg 58%
19:00 +30°C° 0.1 mm 3 mps 760 mmHg 61%
20:00 +28°C° 0.1 mm 4 mps 760 mmHg 65%
21:00 +27°C° 0.1 mm 5 mps 761 mmHg 68%
22:00 +26°C° 0 mm 4 mps 761 mmHg 71%
23:00 +25°C° 0 mm 4 mps 761 mmHg 74%

Tomorrow, 11 August, Tuesday

Time Temperature Precipitation Wind Pressure Humidity
00:00 +22°C° 0 mm 3 mps 761 mmHg 78%
01:00 +22°C° 0 mm 3 mps 761 mmHg 79%
02:00 +22°C° 0 mm 3 mps 761 mmHg 81%
03:00 +21°C° 0 mm 3 mps 761 mmHg 83%
04:00 +22°C° 0 mm 3 mps 761 mmHg 82%
05:00 +22°C° 0 mm 3 mps 761 mmHg 81%
06:00 +24°C° 0 mm 3 mps 761 mmHg 80%
07:00 +25°C° 0 mm 3 mps 761 mmHg 74%
08:00 +27°C° 0 mm 4 mps 761 mmHg 67%
09:00 +29°C° 0 mm 4 mps 762 mmHg 61%
10:00 +30°C° 0 mm 4 mps 761 mmHg 56%
11:00 +32°C° 0 mm 4 mps 761 mmHg 51%
12:00 +34°C° 0 mm 5 mps 761 mmHg 46%
13:00 +34°C° 0 mm 4 mps 761 mmHg 45%
14:00 +34°C° 0 mm 4 mps 761 mmHg 45%
15:00 +34°C° 0 mm 4 mps 761 mmHg 44%
16:00 +33°C° 0 mm 4 mps 761 mmHg 48%
17:00 +32°C° 0 mm 4 mps 760 mmHg 53%
18:00 +32°C° 0 mm 4 mps 760 mmHg 57%
19:00 +29°C° 0 mm 4 mps 760 mmHg 59%
20:00 +28°C° 0 mm 4 mps 761 mmHg 60%
21:00 +27°C° 0 mm 4 mps 761 mmHg 61%
22:00 +27°C° 0 mm 4 mps 761 mmHg 63%
23:00 +26°C° 0 mm 4 mps 761 mmHg 64%

Day after tomorrow, 12 August, Wednesday

Time Temperature Precipitation Wind Pressure Humidity
00:00 +26°C° 0 mm 4 mps 761 mmHg 66%
01:00 +25°C° 0 mm 3 mps 761 mmHg 69%
02:00 +24°C° 0 mm 3 mps 761 mmHg 72%
03:00 +24°C° 0 mm 3 mps 760 mmHg 75%
04:00 +24°C° 0 mm 3 mps 760 mmHg 75%
05:00 +24°C° 0 mm 3 mps 760 mmHg 75%
06:00 +23°C° 0 mm 4 mps 760 mmHg 74%
07:00 +26°C° 0 mm 4 mps 760 mmHg 69%
08:00 +28°C° 0 mm 4 mps 760 mmHg 64%
09:00 +30°C° 0 mm 5 mps 760 mmHg 59%
10:00 +32°C° 0 mm 5 mps 760 mmHg 54%
11:00 +33°C° 0 mm 5 mps 760 mmHg 48%
12:00 +34°C° 0 mm 5 mps 760 mmHg 43%
13:00 +35°C° 0 mm 5 mps 760 mmHg 43%
14:00 +35°C° 0 mm 4 mps 759 mmHg 42%
15:00 +35°C° 0 mm 4 mps 759 mmHg 41%
16:00 +34°C° 0 mm 4 mps 759 mmHg 45%
17:00 +33°C° 0 mm 4 mps 759 mmHg 49%
18:00 +32°C° 0 mm 4 mps 759 mmHg 53%
19:00 +30°C° 0.4 mm 4 mps 759 mmHg 58%
20:00 +28°C° 0.4 mm 4 mps 759 mmHg 62%
21:00 +26°C° 0.4 mm 4 mps 759 mmHg 67%
22:00 +26°C° 0.1 mm 4 mps 759 mmHg 67%
23:00 +26°C° 0.1 mm 4 mps 759 mmHg 68%

13 August, Thursday

Time Temperature Precipitation Wind Pressure Humidity
00:00 +25°C° 0.1 mm 4 mps 759 mmHg 69%
01:00 +24°C° 0.4 mm 3 mps 759 mmHg 74%
02:00 +24°C° 0.4 mm 3 mps 758 mmHg 78%
03:00 +23°C° 0.4 mm 2 mps 758 mmHg 82%
04:00 +22°C° 0 mm 3 mps 758 mmHg 81%
05:00 +22°C° 0 mm 3 mps 758 mmHg 80%
06:00 +22°C° 0 mm 3 mps 758 mmHg 80%
07:00 +25°C° 0 mm 3 mps 758 mmHg 74%
08:00 +27°C° 0 mm 3 mps 758 mmHg 69%
09:00 +28°C° 0 mm 3 mps 758 mmHg 64%
10:00 +29°C° 0.1 mm 3 mps 758 mmHg 61%
11:00 +30°C° 0.1 mm 3 mps 758 mmHg 59%
12:00 +31°C° 0.1 mm 3 mps 758 mmHg 56%
13:00 +33°C° 0 mm 3 mps 758 mmHg 54%
14:00 +33°C° 0 mm 3 mps 758 mmHg 51%
15:00 +34°C° 0 mm 3 mps 758 mmHg 49%
16:00 +33°C° 0.1 mm 3 mps 758 mmHg 53%
17:00 +31°C° 0.1 mm 3 mps 758 mmHg 56%
18:00 +30°C° 0.1 mm 3 mps 758 mmHg 59%
19:00 +28°C° 0.2 mm 3 mps 758 mmHg 67%
20:00 +26°C° 0.2 mm 3 mps 758 mmHg 75%
21:00 +24°C° 0.2 mm 2 mps 758 mmHg 83%
22:00 +23°C° 0 mm 2 mps 759 mmHg 83%
23:00 +23°C° 0 mm 2 mps 759 mmHg 82%

14 August, Friday

Time Temperature Precipitation Wind Pressure Humidity
00:00 +23°C° 0 mm 1 mps 759 mmHg 81%
01:00 +22°C° 0.2 mm 1 mps 759 mmHg 83%
02:00 +22°C° 0.2 mm 1 mps 759 mmHg 85%
03:00 +21°C° 0.2 mm 2 mps 759 mmHg 87%
04:00 +21°C° 0 mm 2 mps 759 mmHg 85%
05:00 +21°C° 0 mm 2 mps 759 mmHg 84%
06:00 +22°C° 0 mm 3 mps 759 mmHg 83%
07:00 +24°C° 0 mm 3 mps 760 mmHg 76%
08:00 +25°C° 0 mm 3 mps 760 mmHg 68%
09:00 +27°C° 0 mm 4 mps 760 mmHg 61%
10:00 +27°C° 0 mm 4 mps 760 mmHg 58%
11:00 +28°C° 0 mm 4 mps 760 mmHg 55%
12:00 +29°C° 0 mm 4 mps 760 mmHg 52%
13:00 +28°C° 0.4 mm 4 mps 760 mmHg 56%
14:00 +28°C° 0.4 mm 4 mps 760 mmHg 60%
15:00 +27°C° 0.4 mm 4 mps 759 mmHg 64%
16:00 +26°C° 0.5 mm 3 mps 760 mmHg 69%
17:00 +25°C° 0.5 mm 3 mps 760 mmHg 74%
18:00 +24°C° 0.5 mm 2 mps 760 mmHg 79%
19:00 +23°C° 0 mm 2 mps 760 mmHg 81%
20:00 +21°C° 0 mm 2 mps 760 mmHg 82%
21:00 +21°C° 0 mm 2 mps 761 mmHg 84%
22:00 +21°C° 0 mm 2 mps 761 mmHg 84%
23:00 +20°C° 0 mm 2 mps 761 mmHg 84%

15 August, Saturday

Time Temperature Precipitation Wind Pressure Humidity
00:00 +20°C° 0 mm 2 mps 761 mmHg 85%
01:00 +19°C° 0 mm 2 mps 761 mmHg 86%
02:00 +19°C° 0 mm 2 mps 761 mmHg 87%
03:00 +19°C° 0 mm 2 mps 760 mmHg 88%
04:00 +19°C° 0 mm 3 mps 761 mmHg 87%
05:00 +19°C° 0 mm 3 mps 761 mmHg 86%
06:00 +20°C° 0 mm 3 mps 761 mmHg 86%
07:00 +21°C° 0 mm 3 mps 761 mmHg 82%
08:00 +22°C° 0 mm 3 mps 761 mmHg 78%
09:00 +22°C° 0 mm 3 mps 761 mmHg 74%
10:00 +24°C° 0 mm 3 mps 761 mmHg 70%
11:00 +25°C° 0 mm 3 mps 761 mmHg 67%
12:00 +26°C° 0 mm 3 mps 761 mmHg 63%
13:00 +26°C° 0 mm 3 mps 761 mmHg 61%
14:00 +27°C° 0 mm 2 mps 761 mmHg 59%
15:00 +27°C° 0 mm 2 mps 760 mmHg 58%
16:00 +27°C° 0 mm 2 mps 760 mmHg 61%
17:00 +26°C° 0 mm 2 mps 760 mmHg 65%
18:00 +25°C° 0 mm 2 mps 760 mmHg 69%
19:00 +24°C° 0 mm 2 mps 761 mmHg 74%
20:00 +23°C° 0 mm 1 mps 761 mmHg 78%
21:00 +21°C° 0 mm 1 mps 761 mmHg 83%
22:00 +21°C° 0 mm 1 mps 761 mmHg 85%
23:00 +21°C° 0 mm 1 mps 761 mmHg 86%
Show more